TimeAST,TemperatureF,Dew PointF,Humidity,Sea Level PressureIn,VisibilityMPH,Wind Direction,Wind SpeedMPH,Gust SpeedMPH,PrecipitationIn,Events,Conditions,WindDirDegrees,DateUTC
12:56 AM,78.1,73.9,87,29.95,10.0,Calm,Calm,-,N/A,,Partly Cloudy,0,2011-11-12 04:56:00
1:56 AM,77.0,73.0,88,29.94,10.0,Calm,Calm,-,N/A,,Partly Cloudy,0,2011-11-12 05:56:00
2:56 AM,77.0,73.0,88,29.93,10.0,Calm,Calm,-,N/A,,Scattered Clouds,0,2011-11-12 06:56:00
3:56 AM,75.9,72.0,87,29.93,10.0,Calm,Calm,-,N/A,,Scattered Clouds,0,2011-11-12 07:56:00
4:56 AM,75.0,72.0,90,29.93,10.0,Calm,Calm,-,N/A,,Scattered Clouds,0,2011-11-12 08:56:00
5:56 AM,75.0,72.0,90,29.95,10.0,Calm,Calm,-,N/A,,Scattered Clouds,0,2011-11-12 09:56:00
6:56 AM,75.9,73.0,91,29.97,10.0,Calm,Calm,-,0.00,,Scattered Clouds,0,2011-11-12 10:56:00
7:56 AM,78.1,73.0,84,29.98,10.0,Calm,Calm,-,N/A,,Scattered Clouds,0,2011-11-12 11:56:00
8:56 AM,82.0,72.0,71,29.99,10.0,East,5.8,-,N/A,,Scattered Clouds,100,2011-11-12 12:56:00
9:56 AM,84.9,73.0,67,30.00,10.0,East,12.7,-,N/A,,Scattered Clouds,90,2011-11-12 13:56:00
10:56 AM,84.9,73.0,67,29.99,10.0,East,12.7,-,N/A,,Scattered Clouds,80,2011-11-12 14:56:00
11:56 AM,86.0,73.0,65,29.98,10.0,ENE,15.0,-,N/A,,Scattered Clouds,60,2011-11-12 15:56:00
12:56 PM,86.0,73.0,65,29.97,10.0,ENE,13.8,-,N/A,,Scattered Clouds,70,2011-11-12 16:56:00
1:56 PM,84.9,73.0,67,29.95,10.0,ENE,13.8,-,N/A,,Scattered Clouds,60,2011-11-12 17:56:00
2:56 PM,84.9,71.1,63,29.94,10.0,ENE,12.7,-,N/A,,Scattered Clouds,70,2011-11-12 18:56:00
3:56 PM,84.9,73.0,67,29.94,10.0,East,13.8,-,N/A,,Scattered Clouds,90,2011-11-12 19:56:00
4:56 PM,82.9,72.0,69,29.94,10.0,East,11.5,-,N/A,,Scattered Clouds,80,2011-11-12 20:56:00
5:56 PM,82.0,72.0,71,29.95,10.0,East,10.4,-,N/A,,Scattered Clouds,80,2011-11-12 21:56:00
6:56 PM,81.0,72.0,74,29.97,10.0,East,10.4,-,N/A,,Scattered Clouds,80,2011-11-12 22:56:00
7:56 PM,81.0,72.0,74,29.98,10.0,East,8.1,-,N/A,,Partly Cloudy,80,2011-11-12 23:56:00
8:56 PM,81.0,72.0,74,29.99,10.0,East,9.2,-,N/A,,Partly Cloudy,90,2011-11-13 00:56:00
9:56 PM,80.1,72.0,76,30.01,10.0,East,6.9,-,N/A,,Partly Cloudy,90,2011-11-13 01:56:00
10:56 PM,80.1,71.1,74,30.00,10.0,ESE,4.6,-,N/A,,Scattered Clouds,120,2011-11-13 02:56:00
11:56 PM,79.0,73.0,82,30.00,10.0,East,3.5,-,0.00,,Scattered Clouds,100,2011-11-13 03:56:00